Other Surface Observations
Issued by NWS Charleston, SC

Current Version | Previous Version | Text Only | Print | Product List | Glossary On
Versions: 1 2 3 4 5 6 7 8 9 10 11 12 13 14 15 16 17 18 19 20 21 22 23 24 25 26 27 28 29 30 31 32 33 34 35 36 37 38 39 40 41 42 43 44 45 46 47 48 49 50
000
SXUS52 KCHS 280027
OSOCHS

MARINE OBSERVATIONS
NATIONAL WEATHER SERVICE CHARLESTON SC
800 PM EDT WED MAY 27 2015

...DOWNTOWN CHARLESTON AND HARBOR...

CITY           SKY/WX    TMP DP  RH WIND       PRES   REMARKS
WATERFRONT PRK   N/A     78  69  73 SE7       30.18S
FORT JOHNSON   NOT AVBL

...LAKE MOULTRIE...

CITY           SKY/WX    TMP DP  RH WIND       PRES   REMARKS
PINOPOLIS        N/A     82  68  61 VRB2      30.11S

...LAKE AND SUPPLEMENTAL COASTAL OBSERVATIONS...

STATION/POSITION TIME  TEMP    WIND        PRES    WAVE   SWELL
                       AIR SEA DIR/SP/G            HT/PER HT/PER/DIR
                 (UTC) (F)     (DEG/KT/KT) (MB)    (FT/S) (FT/S/D)
FORT PULASKI     0000   77 80  120/  5/  6 1023.1R
SAPELO ISLAND    0000   78     120/  5     1022.0S
UPR LAKE MARION  NOT AVBL
WINYAH BAY       2345   77     150/  8     1022.0S
LAKE MURRAY      0000   79     140/  8/ 11 1021.0R
ACE BASIN NERRS  NOT AVBL


...C-MAN AND BUOY OBSERVATIONS...

STATION/POSITION TIME  TEMP    WIND        PRES    WAVE   SWELL
                       AIR SEA DIR/SP/G            HT/PER HT/PER/DIR
                 (UTC) (F)     (DEG/KT/KT) (MB)    (FT/S) (FT/S/D)
BUOY 41004       2350   78 78  120/ 10/ 12 1022.5S   3/ 7   2/ 7
BUOY 41008       2350   78 78  140/  8/ 10 1022.5S   2/ 7   2/120/ 7
FOLLY BEACH CMAN 0000   77     130/  9/ 11 1023.2R
CAPERS NS BUOY   2308   78     140/ 10/ 12 1023.0S
FRIPP NS BUOY    2300   79     140/  8/  8 1022.3R
5E ST. MARYS GA  2321      80                N/A     3/ 8


STATION/POSITION TIME  TEMP    WIND        PRES    WAVE   SWELL
                       AIR SEA DIR/SP/G            HT/PER HT/PER/DIR
                 (UTC) (F)     (DEG/KT/KT) (MB)    (FT/S) (FT/S/D)
FRYING PAN BUOY  2350   76 76  160/ 10/ 12 1024.2R   3/ 7   3/120/ 7
BUOY 41025       2350   74 77  160/ 16/ 19 1023.7S   3/ 7   2/120/ 7
CAPE LOOKOUT NC  0000   74     170/ 14/ 15 1023.5F
BUOY 41002       2350   74 75  100/ 12/ 16 1023.9F   5/ 8   3/110/ 8
BUOY 41010       2320   77 80   80/ 14/ 16 1021.2F
ST AUGUSTINE FL  0000   78 81   90/ 10/ 11 1022.7R

$$



USA.gov is the U.S. government's official web portal to all federal, state and local government web resources and services.